TimeEST,TemperatureF,Dew PointF,Humidity,Sea Level PressureIn,VisibilityMPH,Wind Direction,Wind SpeedMPH,Gust SpeedMPH,PrecipitationIn,Events,Conditions,WindDirDegrees,DateUTC
12:07 AM,48.2,32.0,54,30.37,10.0,West,4.6,-,N/A,,Clear,270,2013-01-10 05:07:00
12:28 AM,50.0,32.0,50,30.38,10.0,West,8.1,-,N/A,,Clear,270,2013-01-10 05:28:00
12:50 AM,46.4,32.0,57,30.39,10.0,West,8.1,-,N/A,,Clear,270,2013-01-10 05:50:00
1:11 AM,48.2,32.0,54,30.39,10.0,West,5.8,-,N/A,,Clear,270,2013-01-10 06:11:00
1:32 AM,48.2,32.0,54,30.39,10.0,West,8.1,-,N/A,,Clear,280,2013-01-10 06:32:00
1:53 AM,46.4,32.0,57,30.41,10.0,West,6.9,-,N/A,,Clear,280,2013-01-10 06:53:00
2:15 AM,46.4,32.0,57,30.41,10.0,West,6.9,-,N/A,,Clear,280,2013-01-10 07:15:00
2:36 AM,46.4,32.0,57,30.43,10.0,West,5.8,-,N/A,,Clear,280,2013-01-10 07:36:00
2:57 AM,44.6,32.0,61,30.43,10.0,WNW,4.6,-,N/A,,Clear,290,2013-01-10 07:57:00
3:19 AM,46.4,30.2,53,30.43,10.0,WNW,9.2,-,N/A,,Clear,300,2013-01-10 08:19:00
3:40 AM,46.4,28.4,50,30.44,10.0,WNW,9.2,16.1,N/A,,Clear,300,2013-01-10 08:40:00
4:23 AM,44.6,30.2,57,30.44,10.0,WNW,9.2,-,N/A,,Clear,300,2013-01-10 09:23:00
4:44 AM,44.6,30.2,57,30.45,10.0,NW,4.6,-,N/A,,Clear,310,2013-01-10 09:44:00
5:05 AM,42.8,30.2,61,30.45,10.0,WNW,6.9,-,N/A,,Clear,300,2013-01-10 10:05:00
6:09 AM,42.8,28.4,57,30.48,10.0,WNW,6.9,-,N/A,,Clear,290,2013-01-10 11:09:00
6:30 AM,42.8,28.4,57,30.48,10.0,WNW,5.8,-,N/A,,Clear,300,2013-01-10 11:30:00
6:52 AM,42.8,28.4,57,30.49,10.0,WNW,5.8,-,N/A,,Clear,290,2013-01-10 11:52:00
7:13 AM,42.8,28.4,57,30.51,10.0,WNW,4.6,-,N/A,,Clear,300,2013-01-10 12:13:00
7:34 AM,42.8,28.4,57,30.52,10.0,WNW,6.9,-,N/A,,Clear,290,2013-01-10 12:34:00
8:17 AM,42.8,28.4,57,30.56,10.0,WNW,6.9,-,N/A,,Clear,290,2013-01-10 13:17:00
8:38 AM,44.6,28.4,53,30.57,10.0,WNW,6.9,-,N/A,,Clear,290,2013-01-10 13:38:00
8:59 AM,44.6,28.4,53,30.57,10.0,WNW,6.9,-,N/A,,Clear,290,2013-01-10 13:59:00
9:20 AM,44.6,28.4,53,30.58,10.0,NW,6.9,-,N/A,,Clear,310,2013-01-10 14:20:00
9:42 AM,44.6,30.2,57,30.58,10.0,NW,10.4,-,N/A,,Clear,310,2013-01-10 14:42:00
10:03 AM,44.6,28.4,53,30.60,10.0,NW,8.1,-,N/A,,Clear,310,2013-01-10 15:03:00
10:24 AM,46.4,30.2,53,30.60,10.0,NNW,6.9,-,N/A,,Clear,340,2013-01-10 15:24:00
10:45 AM,46.4,28.4,50,30.60,10.0,NNW,9.2,-,N/A,,Clear,330,2013-01-10 15:45:00
11:28 AM,46.4,28.4,50,30.58,10.0,North,9.2,-,N/A,,Clear,350,2013-01-10 16:28:00
11:49 AM,46.4,30.2,53,30.56,10.0,North,9.2,-,N/A,,Clear,350,2013-01-10 16:49:00
12:11 PM,46.4,28.4,50,30.56,10.0,North,8.1,-,N/A,,Clear,350,2013-01-10 17:11:00
12:32 PM,46.4,28.4,50,30.55,10.0,North,9.2,-,N/A,,Clear,360,2013-01-10 17:32:00
12:37 PM,46.4,26.6,46,30.55,10.0,North,6.9,-,N/A,,Clear,360,2013-01-10 17:37:00
1:14 PM,48.2,26.6,43,30.53,-9999.0,North,8.1,-,N/A,,Unknown,360,2013-01-10 18:14:00
1:36 PM,48.2,26.6,43,30.53,10.0,North,8.1,-,N/A,,Clear,350,2013-01-10 18:36:00
1:57 PM,50.0,26.6,40,30.53,10.0,North,9.2,-,N/A,,Clear,350,2013-01-10 18:57:00
2:18 PM,50.0,26.6,40,30.53,10.0,North,8.1,-,N/A,,Clear,10,2013-01-10 19:18:00
2:39 PM,50.0,28.4,43,30.52,10.0,North,5.8,-,N/A,,Clear,10,2013-01-10 19:39:00
3:01 PM,48.2,26.6,43,30.52,10.0,NNE,5.8,-,N/A,,Clear,30,2013-01-10 20:01:00
3:22 PM,48.2,26.6,43,30.53,10.0,NNE,4.6,-,N/A,,Clear,30,2013-01-10 20:22:00
3:43 PM,46.4,26.6,46,30.53,10.0,NNE,5.8,-,N/A,,Clear,30,2013-01-10 20:43:00
4:04 PM,46.4,26.6,46,30.53,10.0,NNE,3.5,-,N/A,,Clear,30,2013-01-10 21:04:00
4:26 PM,46.4,26.6,46,30.53,10.0,NE,4.6,-,N/A,,Clear,50,2013-01-10 21:26:00
4:47 PM,46.4,26.6,46,30.53,10.0,ENE,3.5,-,N/A,,Clear,70,2013-01-10 21:47:00
5:08 PM,44.6,28.4,53,30.52,10.0,Calm,Calm,-,N/A,,Clear,0,2013-01-10 22:08:00
5:29 PM,44.6,30.2,57,30.52,10.0,Calm,Calm,-,N/A,,Clear,0,2013-01-10 22:29:00
5:51 PM,44.6,28.4,53,30.51,10.0,NE,3.5,-,N/A,,Clear,50,2013-01-10 22:51:00
6:12 PM,44.6,28.4,53,30.52,10.0,ENE,4.6,-,N/A,,Clear,60,2013-01-10 23:12:00
6:33 PM,44.6,30.2,57,30.52,10.0,ENE,4.6,-,N/A,,Clear,70,2013-01-10 23:33:00
6:55 PM,44.6,28.4,53,30.53,10.0,Calm,Calm,-,N/A,,Clear,0,2013-01-10 23:55:00
7:16 PM,44.6,28.4,53,30.52,10.0,NE,3.5,-,N/A,,Clear,50,2013-01-11 00:16:00
7:37 PM,44.6,28.4,53,30.53,10.0,Calm,Calm,-,N/A,,Clear,0,2013-01-11 00:37:00
7:58 PM,44.6,28.4,53,30.53,10.0,ENE,3.5,-,N/A,,Clear,70,2013-01-11 00:58:00
8:20 PM,42.8,28.4,57,30.53,10.0,ENE,3.5,-,N/A,,Clear,60,2013-01-11 01:20:00
8:41 PM,42.8,28.4,57,30.53,10.0,Calm,Calm,-,N/A,,Clear,0,2013-01-11 01:41:00
9:02 PM,42.8,28.4,57,30.53,10.0,Calm,Calm,-,N/A,,Clear,0,2013-01-11 02:02:00
9:23 PM,42.8,28.4,57,30.53,10.0,Calm,Calm,-,N/A,,Clear,0,2013-01-11 02:23:00
9:45 PM,41.0,30.2,65,30.54,10.0,Calm,Calm,-,N/A,,Clear,0,2013-01-11 02:45:00
10:06 PM,41.0,30.2,65,30.54,10.0,Calm,Calm,-,N/A,,Clear,0,2013-01-11 03:06:00
10:27 PM,41.0,28.4,61,30.53,10.0,ENE,3.5,-,N/A,,Clear,70,2013-01-11 03:27:00
10:49 PM,41.0,28.4,61,30.52,10.0,ENE,3.5,-,N/A,,Clear,70,2013-01-11 03:49:00
11:53 PM,41.0,30.2,65,30.51,10.0,East,3.5,-,N/A,,Clear,100,2013-01-11 04:53:00